Location: Unspecified
(0.0000°N, 0.0000°E)
Time: 16:06:45
(UTC+00:00)

ISS - Pass Details

Date: 15 December 2018
Orbit: 401 x 408 km, 51.6° (Epoch: 12 December)

Event Time Altitude Azimuth Distance (km) Brightness Sun altitude
Rises 18:40:16 0° 342° (NNW) 2,292 -0.1 -10.3°
Reaches altitude 10° 18:42:32 10° 355° (N) 1,438 -1.2 -10.8°
Maximum altitude 18:45:18 26° 55° (NE) 828 -2.8 -11.5°
Enters shadow 18:47:42 12° 110° (ESE) 1,323 -1.7 -12.0°
